Weather History for Christmas Island, IS

Change the Weather History Date:

Tuesday, May 28, 2013

  Actual Average Record
Temperature  
Mean Temperature 78 °F -  
Max Temperature 80 °F 78 °F 82 °F (1998)
Min Temperature 75 °F 72 °F 32 °F (2006)
Cooling Degree Days 12    
Growing Degree Days 28 (Base 50)    
Moisture  
Dew Point 75 °F    
Average Humidity 93    
Maximum Humidity 100    
Minimum Humidity 85    
Precipitation  
Precipitation 0.28 in - - ()
Sea Level Pressure  
Sea Level Pressure 29.86 in    
Wind  
Wind Speed 6 mph ()    
Max Wind Speed 15 mph    
Max Gust Speed -    
Visibility 6.0 miles    
Events Rain    
Averages and records for this station are not official NWS values.
T = Trace of Precipitation, MM = Missing Value Source: Averaged Metar Reports

Daily Weather History Graph

Daily Weather History Graph

Search for Another Location

Airport:

Trip Planner

Search our weather history database for the weather conditions in past years. The results will help you decide how hot, cold, wet, or windy it might be!

Date:

Astronomy

May. 28, 2013 Rise Set
Actual Time 6:07 AM CXT 5:41 PM CXT
Civil Twilight 5:44 AM CXT 6:04 PM CXT
Nautical Twilight 5:18 AM CXT 6:30 PM CXT
Astronomical Twilight 4:52 AM CXT 6:56 PM CXT
Moon 9:05 PM CXT (5/28) 9:01 AM CXT (5/28)
Length of Visible Light 12h 19m
Length of Day
11h 34m
Waning Gibbous, 87% of the Moon is Illuminated
May 28
Waning Gibbous
Jun 1
Last Quarter
Jun 8
New
Jun 17
First Quarter
Jun 23
Full

Hourly Weather History & Observations

Time (CXT) Temp. Heat Index Dew Point Humidity Pressure Visibility Wind Dir Wind Speed Gust Speed Precip Events Conditions
12:00 AM 77 °F - 76 °F 95% 29.85 in - East 5.8 mph - -   Overcast
12:00 AM 77.0 °F - 75.2 °F 94% 29.89 in 6.2 mi East 5.8 mph - N/A   Overcast
12:45 AM 75.2 °F - 75.2 °F 100% 29.86 in 6.2 mi SE 4.6 mph - N/A Rain Light Rain Showers
1:00 AM 76 °F - 75 °F 97% 29.83 in - SSE 4.6 mph - -  
1:00 AM 75.2 °F - 75.2 °F 100% 29.86 in - SSE 4.6 mph - N/A   Overcast
1:21 AM 77.0 °F - 75.2 °F 94% 29.86 in - SSW 2.3 mph - N/A   Overcast
1:23 AM 77.0 °F - 75.2 °F 94% 29.86 in - SSW 1.2 mph - N/A   Overcast
1:24 AM 77.0 °F - 75.2 °F 94% 29.86 in - SSW 1.2 mph - N/A   Overcast
1:27 AM 77.0 °F - 75.2 °F 94% 29.86 in - SSW 1.2 mph - N/A   Overcast
1:29 AM 77.0 °F - 75.2 °F 94% 29.86 in - SSW 1.2 mph - N/A   Overcast
1:30 AM 77.0 °F - 75.2 °F 94% 29.86 in - South 1.2 mph - N/A   Overcast
1:31 AM 77.0 °F - 75.2 °F 94% 29.86 in - South 2.3 mph - N/A Rain Light Rain Showers
1:32 AM 77.0 °F - 75.2 °F 94% 29.86 in - South 2.3 mph - N/A   Overcast
2:00 AM 75.2 °F - 75.2 °F 100% 29.86 in - SE 5.8 mph - N/A Rain Light Rain Showers
2:22 AM 75.2 °F - 75.2 °F 100% 29.83 in 6.2 mi SE 3.5 mph - N/A   Overcast
3:00 AM 76 °F - 75 °F 96% 29.80 in - ESE 4.6 mph - -   Overcast
3:00 AM 77.0 °F - 75.2 °F 94% 29.83 in - ESE 4.6 mph - N/A   Mostly Cloudy
4:00 AM 76 °F - 75 °F 97% 29.78 in - NE 5.8 mph - -  
4:00 AM 77.0 °F - 75.2 °F 94% 29.83 in 6.2 mi NE 5.8 mph - N/A   Scattered Clouds
4:07 AM 77.0 °F - 75.2 °F 94% 29.80 in 6.2 mi NNE 5.8 mph - N/A   Scattered Clouds
5:00 AM 77.0 °F - 75.2 °F 94% 29.83 in 6.2 mi NE 6.9 mph - N/A   Scattered Clouds
5:21 AM 77.0 °F - 75.2 °F 94% 29.83 in 6.2 mi NE 6.9 mph - N/A   Mostly Cloudy
6:00 AM 76 °F - 75 °F 95% 29.80 in - NNE 5.8 mph - -   Overcast
6:00 AM 77.0 °F - 75.2 °F 94% 29.83 in 6.2 mi NNE 5.8 mph - N/A   Mostly Cloudy
7:00 AM 78 °F - 76 °F 91% 29.82 in - NNE 8.1 mph - -  
7:00 AM 77.0 °F - 75.2 °F 94% 29.86 in 6.2 mi NNE 8.1 mph - N/A Rain Light Rain
7:19 AM 77.0 °F - 75.2 °F 94% 29.86 in 6.2 mi NNE 8.1 mph - N/A   Mostly Cloudy
7:20 AM 77.0 °F - 75.2 °F 94% 29.86 in 6.2 mi NNE 8.1 mph - N/A   Mostly Cloudy
8:00 AM 77.0 °F - 75.2 °F 94% 29.86 in 6.2 mi North 12.7 mph - N/A   Overcast
8:09 AM 77.0 °F - 75.2 °F 94% 29.86 in 6.2 mi North 10.4 mph - N/A Rain Light Rain Showers
8:14 AM 77.0 °F - 75.2 °F 94% 29.86 in 6.2 mi North 10.4 mph - N/A   Mostly Cloudy
8:28 AM 77.0 °F - 75.2 °F 94% 29.86 in 6.2 mi North 11.5 mph - N/A Rain Light Rain Showers
9:00 AM 77 °F - 75 °F 92% 29.85 in - NNE 11.5 mph - -   Overcast
9:00 AM 77.0 °F - 75.2 °F 94% 29.89 in 6.2 mi NNE 11.5 mph - N/A Rain Rain Showers
9:05 AM 77.0 °F - 75.2 °F 94% 29.89 in 4.3 mi NNE 11.5 mph - N/A Rain Heavy Rain Showers
9:23 AM 77.0 °F - 75.2 °F 94% 29.89 in 3.7 mi North 15.0 mph - N/A Rain Heavy Rain Showers
9:52 AM 77.0 °F - 75.2 °F 94% 29.92 in - North 9.2 mph - N/A Rain Light Rain Showers
10:00 AM 77 °F - 75 °F 92% 29.87 in - North 8.1 mph - -  
10:00 AM 77.0 °F - 75.2 °F 94% 29.92 in - North 8.1 mph - N/A Rain Light Rain Showers
10:51 AM 78.8 °F - 75.2 °F 89% 29.89 in 6.2 mi North 10.4 mph - N/A   Overcast
10:52 AM 78.8 °F - 75.2 °F 89% 29.89 in 6.2 mi North 10.4 mph - N/A   Overcast
11:00 AM 78.8 °F - 75.2 °F 89% 29.89 in 6.2 mi North 13.8 mph - N/A   Overcast
11:02 AM 78.8 °F - 75.2 °F 89% 29.89 in 6.2 mi North 12.7 mph - N/A Rain Light Rain Showers
11:03 AM 78.8 °F - 75.2 °F 89% 29.89 in 6.2 mi North 12.7 mph - N/A Rain Light Rain Showers
11:50 AM 78.8 °F - 75.2 °F 89% 29.89 in 6.2 mi North 13.8 mph - N/A   Mostly Cloudy
12:00 PM 80 °F - 76 °F 85% 29.84 in - North 9.2 mph - -   Overcast
12:00 PM 80.6 °F 87.1 °F 77.0 °F 89% 29.86 in 6.2 mi North 9.2 mph - N/A   Mostly Cloudy
1:00 PM 78 °F - 75 °F 89% 29.82 in - North 15.0 mph - -  
1:00 PM 78.8 °F - 75.2 °F 89% 29.86 in 6.2 mi North 15.0 mph - N/A Rain Light Rain
1:06 PM 77.0 °F - 75.2 °F 94% 29.86 in 6.2 mi NNW 13.8 mph - N/A Rain Light Rain Showers
1:16 PM 78.8 °F - 75.2 °F 89% 29.86 in 6.2 mi NNW 10.4 mph - N/A Rain Light Rain Showers
1:26 PM 78.8 °F - 77.0 °F 94% 29.83 in 6.2 mi NNW 8.1 mph - N/A   Mostly Cloudy
1:59 PM 77.0 °F - 75.2 °F 94% 29.86 in 6.2 mi NNW 9.2 mph - N/A Rain Light Rain Showers
2:00 PM 77.0 °F - 75.2 °F 94% 29.86 in 6.2 mi NNW 9.2 mph - N/A Rain Light Rain Showers
2:09 PM 77.0 °F - 75.2 °F 94% 29.83 in 6.2 mi NW 9.2 mph - N/A   Mostly Cloudy
2:17 PM 77.0 °F - 75.2 °F 94% 29.86 in 6.2 mi NW 9.2 mph - N/A   Mostly Cloudy
2:51 PM 77.0 °F - 73.4 °F 89% 29.83 in 6.2 mi NW 9.2 mph - N/A Rain Light Rain Showers
3:00 PM 76 °F - 74 °F 91% 29.81 in - NW 9.2 mph - -  
3:00 PM 77.0 °F - 73.4 °F 89% 29.83 in 6.2 mi NW 9.2 mph - N/A   Scattered Clouds
4:00 PM 78 °F - 75 °F 88% 29.80 in - NW 5.8 mph - -  
4:00 PM 77.0 °F - 75.2 °F 94% 29.83 in 6.2 mi NW 5.8 mph - N/A   Scattered Clouds
5:00 PM 77.0 °F - 75.2 °F 94% 29.83 in 6.2 mi WNW 5.8 mph - N/A   Unknown
6:00 PM 77 °F - 75 °F 91% 29.83 in - WSW 3.5 mph - -  
6:00 PM 77.0 °F - 75.2 °F 94% 29.86 in 6.2 mi WSW 3.5 mph - N/A   Overcast
7:00 PM 76 °F - 75 °F 94% 29.85 in - SW 4.6 mph - -  
7:00 PM 75.2 °F - 75.2 °F 100% 29.89 in 6.2 mi SW 4.6 mph - N/A   Overcast
8:00 PM 75.2 °F - 73.4 °F 94% 29.89 in 6.2 mi SW 4.6 mph - N/A Rain Rain
9:00 PM 75 °F - 74 °F 96% 29.87 in - NW 2.3 mph - -   Overcast
9:00 PM 75.2 °F - 73.4 °F 94% 29.92 in 6.2 mi NW 2.3 mph - N/A   Mostly Cloudy
9:37 PM 75.2 °F - 73.4 °F 94% 29.92 in 3.7 mi SW 1.2 mph - N/A Rain Rain
10:00 PM 75 °F - 74 °F 95% 29.86 in - South 2.3 mph - -  
10:00 PM 75.2 °F - 73.4 °F 94% 29.89 in - South 2.3 mph - N/A Rain Light Rain
10:06 PM 75.2 °F - 73.4 °F 94% 29.92 in - South 1.2 mph - N/A   Mostly Cloudy
10:25 PM 75.2 °F - 73.4 °F 94% 29.92 in - SSE 2.3 mph - N/A   Scattered Clouds
11:00 PM 75.2 °F - 73.4 °F 94% 29.89 in 6.2 mi SW 4.6 mph - N/A   Mostly Cloudy
11:27 PM 75.2 °F - 73.4 °F 94% 29.89 in - South 1.2 mph - N/A   Mostly Cloudy
11:57 PM 75.2 °F - 75.2 °F 100% 29.89 in 6.2 mi SSW 2.3 mph - N/A   Mostly Cloudy